Preview of NWS' New Version of Forecast
This preview is not operational and should not be used for support decisions.

Regional Weather Roundup (RWR)

Issued by National Weather Service (NWS)

                            
000
ASUS42 KTBW 242116
RWRFL 
FLORIDA REGIONAL WEATHER ROUNDUP
NATIONAL WEATHER SERVICE TAMPA BAY RUSKIN FL
500 PM EDT FRI MAY 24 2019

NOTE: "FAIR" INDICATES FEW OR NO CLOUDS BELOW 12,000 FEET WITH NO
SIGNIFICANT WEATHER AND/OR OBSTRUCTIONS TO VISIBILITY.

FLZ001>010-012>015-112-114-115-242200-
PANHANDLE FLORIDA
  
CITY           SKY/WX    TMP DP  RH WIND       PRES   REMARKS
PENSACOLA      FAIR      88  74  63 S12       30.11F HX  96           
PENSACOLA NAS  FAIR      85  75  72 S10       30.11F                  
MILTON NAS     FAIR      91  74  57 W6        30.10F HX 100           
CRESTVIEW      FAIR      94  63  35 E5        30.11F HX  95           
DUKE FIELD     FAIR      95  66  38 E5        30.09F HX  98           
VALPARAISO     FAIR      85  72  65 S10       30.10F                  
MARY ESTHER    FAIR      85  72  66 SW9       30.10F HAZE             
PANAMA CITY    FAIR      88  71  57 S12       30.09F                  
APALACHICOLA   FAIR      84  70  62 SE7       30.11F                  

STATION/POSITION SKY/WX   TEMP    WIND        PRES    WAVE   SWELL
                          AIR SEA DIR/SP/G            HT/PER HT/PER
                          (F)     (DEG/KT/KT) (MB)    (FT/S) (FT/S)
30.1N   87.6W                                   N/A     3/ 7
29.2N   88.2W                      90/ 10/ 12 1020.2F   4/ 7   3/ 7
PANAMA CITY BEAC           80 84  200/ 10/ 11 1020.1F
TOWER C          NOT AVBL

$$
FLZ011-016>038-118-127-128-134-139-239-242200-
NORTH FLORIDA
  
CITY           SKY/WX    TMP DP  RH WIND       PRES   REMARKS
MARIANNA       FAIR      94  57  28 MISG      30.10F                  
TALLAHASSEE    FAIR      96  58  27 VRB3      30.09F HX  95           
PERRY          FAIR      95  60  31 N3        30.09F HX  95           
LIVE OAK       SUNNY     95  57  28 VRB7      30.08F                  
CROSS CITY     FAIR      95  61  32 NE7       30.08F HX  95           
LAKE CITY      FAIR      91  61  35 E7        30.09F                  
GAINESVILLE    FAIR      96  62  32 E8G17     30.11F HX  97           
WILLISTON      FAIR      92  60  33 SE8       30.08F                  
PALATKA        FAIR     N/A N/A N/A E8        30.11S                  
MAYPORT NAS    FAIR      84  66  54 SE8       30.11F                  
JACKSONVILLE   FAIR      91  62  37 E7        30.09F                  
JAX NAS        FAIR      90  61  37 E8        30.11F                  
JAX CECIL      SUNNY     97  64  34 E15       30.09F HX  99           
FERNANDINA BEA FAIR      83  68  60 SE10      30.11F                  
ST AUGUSTINE   FAIR      82  67  60 E7        30.13F                  
PALM COAST     SUNNY     82  66  57 E6        30.13F                  

STATION/POSITION SKY/WX   TEMP    WIND        PRES    WAVE   SWELL
                          AIR SEA DIR/SP/G            HT/PER HT/PER
                          (F)     (DEG/KT/KT) (MB)    (FT/S) (FT/S)
SHELL POINT      NOT AVBL
KEATON BEACH               82     280/  9/ 10 1019.2F
CEDAR KEY                  82     290/  8/ 11 1019.0F
FERNANDINA                 87 83  110/  7/ 11 1020.5F
30.7N   81.3W                 82                N/A     2/ 7
MAYPORT                    81 82  120/  6/  9 1020.1F
31.4N   80.9W              79 81  170/ 10/ 12 1019.4F   2/ 8   2/ 8
ST AUGUSTINE               78 83   90/  6/  7 1020.3F

$$
FLZ040-043>046-052-053-057-058-063-144-242200-
INTERIOR CENTRAL FLORIDA
  
CITY           SKY/WX    TMP DP  RH WIND       PRES   REMARKS
OCALA          FAIR      93  62  35 E10       30.09F                  
LEESBURG       FAIR      91  61  36 E10       30.09F                  
SANFORD        FAIR      87  64  46 NE10      30.10F                  
ORLANDO EXEC   FAIR      88  63  43 E15       30.10F                  
ORLANDO INTL   FAIR      88  62  41 NE15      30.10F                  
KISSIMMEE      FAIR      88  64  44 E12       30.10F                  
WINTER HAVEN   FAIR      92  63  38 E12       30.09F                  
LAKELAND       SUNNY     90  63  40 E12G18    30.08F                  
BARTOW         SUNNY     91  63  38 NE12G21   30.07F                  
SEBRING        FAIR      89  62  40 E14G20    30.08S                  
OKEECHOBEE     FAIR      84  64  51 E9        30.08S                  

$$
FLZ041-047-054-059-064-141-147-242200-
EAST CENTRAL FLORIDA
  
CITY           SKY/WX    TMP DP  RH WIND       PRES   REMARKS
ORMOND BEACH   SUNNY     81  66  61 NE9       30.13S                  
DAYTONA BEACH  FAIR      83  68  60 NE9       30.12F                  
DELAND         FAIR      84  64  51 E10       30.11S                  
TITUSVILLE     SUNNY     86  64  48 E9        30.12F                  
CAPE CANAVERAL FAIR      81  60  49 NE12      30.10F                  
PATRICK AFB    FAIR      81  68  65 E12       30.11F                  
MELBOURNE      FAIR      81  66  60 NE13      30.11F                  
VERO BEACH     FAIR      82  66  58 E13       30.11F                  
FT PIERCE      FAIR      82  65  56 NE12G18   30.10F                  
STUART         MOSUNNY   82  64  54 E14       30.11F                  

STATION/POSITION SKY/WX   TEMP    WIND        PRES    WAVE   SWELL
                          AIR SEA DIR/SP/G            HT/PER HT/PER
                          (F)     (DEG/KT/KT) (MB)    (FT/S) (FT/S)
28.5N   80.2W              78      50/ 10/ 14 1019.9
28.9N   78.5W              77 79   30/ 10/ 14 1020.0F   4/ 8   3/ 8
TRIDENT PIER               81 82   60/ 10/ 15 1021.1F
28.4N   80.5W                 81                N/A     3/ 8
27.5N   80.2W                 77                N/A     4/ 8

$$
FLZ050-056-061-142-242-148-248-149-249-151-251-155-255-
160-260-242200-
WEST CENTRAL FLORIDA
  
CITY           SKY/WX    TMP DP  RH WIND       PRES   REMARKS
CRYSTAL RIVER  FAIR      88  72  58 W8        30.08F                  
INVERNESS      FAIR      91  66  43 NE5       30.09F                  
BROOKSVILLE    FAIR      92  64  39 N8        30.08F                  
CLEARWATER AIR FAIR      84  68  58 NW10G17   30.06F                  
ST PETE CLEARW FAIR      90  64  42 N6        30.06F                  
TAMPA INTL     FAIR      93  61  34 E15       30.07F                  
TAMPA EXEC     FAIR      91  64  40 NE5G16    30.07F                  
PLANT CITY     FAIR      93  63  36 NE10G17   30.09F                  
MACDILL AFB    FAIR      91  64  39 E13       30.06F                  
PETER O KNIGHT PTSUNNY   93  64  38 N7G20     30.06F HX  95           
ST PETERSBURG  FAIR      86  68  54 E6        30.05F                  
SARASOTA       FAIR      93  60  33 E17G23    30.03F                  
VENICE         FAIR      95  63  34 E14       30.05F HX  96           

STATION/POSITION SKY/WX   TEMP    WIND        PRES    WAVE   SWELL
                          AIR SEA DIR/SP/G            HT/PER HT/PER
                          (F)     (DEG/KT/KT) (MB)    (FT/S) (FT/S)
27.3N   84.2W                 79                N/A     3/ 6
CLEARWATER BEACH           80 85  330/ 14/ 16 1018.5F
MIDDLE TAMPA BAY           85      30/ 10/ 11 1018.1F
VENICE                     86 82  180/  2/  5 1017.2F

$$
FLZ066-069-070-075>078-162-262-165-265-242200-
SOUTHWEST FLORIDA AND KEYS
  
CITY           SKY/WX    TMP DP  RH WIND       PRES   REMARKS
PUNTA GORDA    FAIR      90  63  40 NE12      30.06F                  
FT MYERS       FAIR      88  64  44 E10G22    30.04F                  
SOUTHWEST INTL FAIR      90  63  40 E17       30.05F                  
NAPLES         PTSUNNY   89  65  44 NE14G20   30.03F                  
MARCO ISLAND   FAIR      89  66  46 E15       30.04F                  
IMMOKALEE      FAIR      90  66  45 E16       30.04S                  
MARATHON       CLOUDY    87  66  49 NE17G24   30.03F                  
KEY WEST NAS   FAIR      88  67  49 E18       30.02F                  
KEY WEST INTL  FAIR      85  67  54 E17       30.03F                  

STATION/POSITION SKY/WX   TEMP    WIND        PRES    WAVE   SWELL
                          AIR SEA DIR/SP/G            HT/PER HT/PER
                          (F)     (DEG/KT/KT) (MB)    (FT/S) (FT/S)
NAPLES                     88 84              1017.0F
DRY TORTUGAS               80      70/ 14/ 15 1017.2F
SAND KEY                   80                 1016.6F
SOMBRERO KEY               80                 1016.1F

$$
FLZ067-068-071>074-168-172>174-242200-
SOUTHEAST FLORIDA 
  
CITY           SKY/WX    TMP DP  RH WIND       PRES   REMARKS
W PALM BEACH   FAIR      84  65  52 NE15      30.09F                  
BOCA RATON     MOSUNNY   86  66  51 NE14G21   30.08S                  
FT LAUDER-EXEC PTSUNNY   82  64  54 NE14G23   30.06F                  
FT LAUDERDALE  FAIR      82  65  56 E17       30.06S                  
POMPANO BEACH  FAIR      84  65  52 NE14G21   30.07F                  
PEMBROKE PINES PTSUNNY   84  64  50 NE20      30.08S                  
OPA LOCKA      FAIR      84  64  50 NE17      30.06F                  
MIAMI          PTSUNNY   83  65  54 E15       30.05F                  
WEST KENDALL   FAIR      86  63  45 NE16      30.04F                  
HOMESTEAD      FAIR      82  66  58 NE18      30.04F                  

STATION/POSITION SKY/WX   TEMP    WIND        PRES    WAVE   SWELL
                          AIR SEA DIR/SP/G            HT/PER HT/PER
                          (F)     (DEG/KT/KT) (MB)    (FT/S) (FT/S)
PORT EVERGLADES            80      60/ 13/ 17 1018.2F
VIRGINIA KEY               80 83   40/ 14/ 17 1017.2F
LAKE WORTH                 78 81              1019.8F
SETTLEMENT POINT           77      60/ 16/ 20 1018.7F

$$